Regional Weather Roundup
Issued by NWS Midland/Odessa, TX

Skip options and go directly to product.
Home | Oldest Version | Previous Version | Current Version | All | Text Only | Save Text | Print | Product List | Glossary Off

Skip product version selection by date and time.   

471
ASUS44 KMAF 010410
RWRMAF
MIDLAND AREA WEATHER ROUNDUP
NATIONAL WEATHER SERVICE MIDLAND TX
1100 PM CDT THU JUN 30 2016

...IN SOUTHWEST TEXAS AND SOUTHEAST NEW MEXICO...

CITY           SKY/WX    TMP DP  RH WIND       PRES   REMARKS
ALPINE         CLEAR     76  52  42 SE6       30.20R
ANDREWS        FAIR      79  55  43 S6        30.08R
ARTESIA        CLEAR     81  50  34 SE8       30.04R
BIG SPRING     PTCLDY    78  56  48 E6        30.07R
CARLSBAD       CLEAR     83  55  38 SE12      30.02R
DRYDEN           N/A     86  59  39 E10       29.99R
FORT STOCKTON  CLEAR     83  60  45 SE9       30.05R
GUAD PASS      CLOUDY    75  52  44 E24       30.18R
HOBBS          CLEAR     81  54  39 SE8       30.10R
MARFA          CLEAR    N/A N/A N/A E8        30.18R
MIDLAND AIRPK  CLEAR     84  58  39 SE10      30.07R
MIDLAND INTL   CLEAR     82  60  47 SE9       30.06R
ODESSA         CLEAR     83  57  41 SE10      30.07R
PECOS          CLEAR     85  54  34 SE10      30.00R
PRESIDIO       FAIR      89  52  28 NE10      29.99R
SEMINOLE       CLEAR     81  54  39 SE6       30.09R
SNYDER           N/A     80  63  54 SE3       30.05R
WINK           CLEAR     82  58  43 E12       30.01R
$$
...OTHER STATIONS IN TEXAS...

CITY           SKY/WX    TMP DP  RH WIND       PRES   REMARKS
ABILENE        PTCLDY    80  66  62 SE10      30.03R
AMARILLO       LGT RAIN  69  64  84 CALM      30.15R
AUSTIN         CLEAR     79  72  79 SE3       29.96S
BROWNSVILLE    CLEAR     81  76  84 SE8       29.94R
CORPUS CHRISTI PTCLDY    81  76  84 S7        29.93S
DALLAS FTW     PTCLDY    85  62  46 S8        29.97R
DEL RIO        CLEAR     85  62  46 E9        29.93R
EL PASO        MOCLDY    83  56  39 SW6       30.03R
HOUSTON INT    PTCLDY    81  75  82 CALM      29.96R
LUBBOCK        CLOUDY    74  65  73 NW6       30.11R
SAN ANGELO     CLOUDY    79  66  64 SE7       30.00R
SAN ANTONIO    PTCLDY    83  70  64 SE12      29.99R
WACO           CLEAR     79  68  69 E3        29.98R
WICHITA FALLS  NOT AVBL
$$
...OTHER LOCATIONS IN NEW MEXICO...

CITY           SKY/WX    TMP DP  RH WIND       PRES   REMARKS
ALAMAGORDO     MOCLDY    81  41  24 S6        30.06R
ALBUQUERQUE    MOCLDY    81  50  33 NE10      30.14R
CANNON AFB     CLOUDY    73  56  55 SE14      30.14R
CLOVIS         MOCLDY    68  57  68 E5        30.14S
HOLLOMAN AFB   MOCLDY    84  41  21 SE9       30.03R
ROSWELL        PTCLDY    84  46  26 S10       30.04R
RUIDOSO          N/A     68  39  34 S10       30.30R
SANTA FE       CLOUDY    73  49  42 N13       30.22R
TRUTH OR CONSE MOCLDY    83  45  26 W5        30.08R
TUCUMCARI      CLOUDY    75  55  49 S14       30.11R
$$

USA.gov is the U.S. government's official web portal to all federal, state and local government web resources and services.